Location: Arroyo de la Miga
(34.7651°N, 106.2106°W)
Time: 00:47:40
(UTC+00:00)

Daily predictions for brighter satellites

Satellite Brightness Start Highest point End
(mag) Time Altitude Azimuth Time Altitude Azimuth Time Altitude Azimuth
NOSS 3-1 (C) 3.2 02:28:58 10° SSW 02:34:06 60° ESE 02:39:52 10° NE
NOSS 3-1 (A) 3.8 02:30:49 10° S 02:35:29 33° ESE 02:40:37 10° NE
STARLINK-1205 4.1 02:32:47 10° SSW 02:36:37 39° SE 02:40:30 10° ENE
STARLINK-1151 4.0 02:34:06 10° NW 02:38:10 54° NE 02:42:13 10° ESE
Cosmos 2251 Rocket 4.1 02:33:25 10° N 02:38:21 41° ENE 02:43:15 10° SE
Cosmos 2233 Rocket 4.4 02:35:13 10° NNW 02:41:18 67° W 02:47:24 10° S
STARLINK-1218 3.9 02:37:39 10° SSW 02:41:34 44° SE 02:45:30 10° ENE
Ariane Rocket 3.0 02:37:04 10° SSE 02:42:06 79° ENE 02:47:12 10° N
STARLINK-1133 3.9 02:39:02 10° NW 02:43:09 60° NE 02:47:13 10° ESE
IRS-1A Rocket 4.4 02:37:39 10° SSE 02:43:31 78° ENE 02:49:17 10° N
Cosmos 2242 Rocket 4.3 02:40:54 10° SSE 02:44:50 33° E 02:48:46 10° NNE
FREGAT/IRIS 2.2 02:42:50 10° SSE 02:45:29 69° ENE 02:48:08 10° N
STARLINK-1254 3.8 02:42:33 10° SSW 02:46:32 49° SE 02:50:32 10° NE
NOSS 2-3 (C) 4.3 02:43:06 10° S 02:46:43 29° ESE 02:50:35 10° NE
Cosmos 1812 4.5 02:43:35 10° SSW 02:47:07 36° W 02:50:41 10° NNW
DELTA 2 R/B (1) 4.1 02:42:47 10° WNW 02:48:08 50° SSW 02:53:30 10° SE
STARLINK-1139 3.7 02:44:01 10° NW 02:48:08 67° NE 02:52:04 11° SE
STARLINK-1231 3.7 02:47:29 10° SSW 02:51:31 56° SE 02:55:34 10° NE
CZ-2C R/B 3.8 02:48:11 10° NNE 02:52:34 54° E 02:56:59 10° S
STARLINK-1212 4.2 02:49:50 10° WSW 02:52:49 44° NW 02:55:49 10° NNE
Cosmos 1943 4.3 02:47:45 10° NW 02:53:06 44° WSW 02:58:23 10° S
STARLINK-1174 3.7 02:48:57 10° NW 02:53:06 75° NE 02:56:50 12° SE
STARLINK-1105 4.2 02:50:19 10° WSW 02:53:17 44° NW 02:56:17 10° NNE
STARLINK-1247 4.2 02:51:14 10° WSW 02:54:12 43° NW 02:57:12 10° NNE
SEDSat Delta rocket 4.1 02:47:46 10° WSW 02:54:30 66° S 03:00:59 10° E
STARLINK-1227 4.3 02:51:41 10° WSW 02:54:39 42° NW 02:57:38 10° NNE
STARLINK-1226 4.3 02:52:34 10° WSW 02:55:31 41° NW 02:58:29 10° NNE
Cosmos 1666 2.7 02:52:16 10° N 02:56:08 70° E 02:59:56 10° SSE
STARLINK-1215 4.4 02:53:30 10° WSW 02:56:28 40° NW 02:59:26 10° NNE
STARLINK-1232 3.6 02:52:24 10° SSW 02:56:29 63° SE 03:00:35 10° NE
SL-08 RB Rocket 3.7 02:52:42 10° SSE 02:57:19 75° ENE 03:01:55 10° N
MONITOR-E 3.6 02:55:01 10° SSE 02:57:33 84° E 03:00:08 10° N
STARLINK-1149 3.6 02:53:55 10° NW 02:58:04 83° NE 03:01:36 14° SE
Cosmos 1536 2.8 02:54:01 10° N 02:58:05 73° E 03:02:07 10° SSE
STARLINK-1217 4.5 02:55:18 10° WSW 02:58:14 39° NW 03:01:11 10° NNE
ARGOS 3.3 02:53:55 10° S 02:59:15 78° WSW 03:04:39 10° NNW
IUS-15 SRM-1 4.4 02:54:49 10° WSW 02:59:23 23° SSW 03:01:00 14° SE
STARLINK-1208 3.5 02:57:19 10° SW 03:01:25 71° SE 03:05:33 10° NE
CZ-2C R/B 2.7 02:57:19 10° NNE 03:02:54 67° ESE 03:08:28 10° S
STARLINK-1180 3.6 02:58:55 10° NW 03:03:05 88° SW 03:06:25 15° SE
Cosmos 44 Rocket 4.3 02:59:20 10° N 03:03:47 33° NE 03:07:23 14° ESE
GOES 2 Rocket 4.5 02:56:38 10° WSW 03:04:21 51° S 03:09:25 14° ESE
Tsikada Rocket 4.4 02:59:44 10° SSE 03:05:31 42° E 03:11:17 10° NNE
STARLINK-1271 3.5 03:02:17 10° SW 03:06:25 79° SE 03:10:33 10° NE
USA 186 2.7 03:05:22 10° SSW 03:07:29 31° W 03:09:43 10° NNW
SJ-6B 2.8 03:03:45 10° S 03:07:31 78° WSW 03:11:16 10° NNW
STARLINK-1153 3.6 03:03:53 10° NW 03:08:01 79° SW 03:11:11 17° SE
DNEPR-1 R/B 4.3 03:02:07 10° NNW 03:08:06 61° ENE 03:11:59 16° SE
Cosmos 2346 Rocket 4.4 03:04:18 10° S 03:10:16 64° E 03:16:19 10° NNE
STARLINK-1154 3.6 03:07:15 10° SW 03:11:23 88° SE 03:15:32 10° NE
Cosmos 2084 Rocket 4.5 03:07:59 10° SW 03:12:05 49° NW 03:16:17 10° NNE
STARLINK-1132 3.7 03:08:52 10° NW 03:13:00 71° SW 03:15:58 18° SE
Cosmos 2278 Rocket 3.2 03:10:43 12° SSE 03:14:47 25° ESE 03:19:21 10° NE
ASTEX 1 3.3 03:10:51 10° S 03:15:43 82° E 03:20:38 10° N
STARLINK-1197 3.7 03:12:13 10° SW 03:16:21 83° NW 03:20:31 10° NE
STARLINK-1177 3.9 03:13:52 10° NW 03:17:57 63° SW 03:20:45 19° SSE
STARLINK-1157 4.1 03:15:05 10° NNW 03:18:11 34° NE 03:19:58 20° E
Cosmos 1733 Rocket 3.8 03:16:12 10° NNW 03:20:28 53° W 03:24:41 10° S
STARLINK-1198 3.8 03:17:12 10° SW 03:21:19 75° NW 03:25:27 10° NE
Okean 1-7 3.1 03:18:59 12° SSE 03:22:47 52° E 03:26:57 10° NNE
Meteor 1-18 Rocket 4.3 03:17:27 10° S 03:22:50 56° E 03:28:18 10° NNE
STARLINK-1167 4.0 03:18:53 10° NW 03:22:56 56° SW 03:25:32 20° SSE
Meteor 1-4 Rocket 3.6 03:23:36 24° ESE 03:24:05 24° E 03:26:56 10° NE
Cosmos 1844 Rocket 3.8 03:18:57 10° SW 03:24:23 46° WNW 03:29:50 10° N
Hubble Space Telescope 1.6 03:21:38 10° WSW 03:25:21 33° S 03:26:52 25° SE
STARLINK-1199 4.0 03:22:13 10° SW 03:26:20 67° NW 03:30:27 10° NE
STARLINK-1168 4.2 03:23:53 10° NW 03:27:53 49° SW 03:30:19 21° SSE
STARLINK-1210 4.2 03:27:12 10° WSW 03:31:18 60° NW 03:35:23 10° NE
Resurs 01 Rocket 1.7 03:29:31 22° SSE 03:32:12 60° ENE 03:36:36 10° N
STARLINK-1164 4.4 03:28:55 10° WNW 03:32:52 44° SW 03:35:07 22° S
Cosmos 407 Rocket 4.2 03:31:16 10° N 03:36:16 39° ENE 03:38:42 25° ESE
STARLINK-1219 4.4 03:32:14 10° WSW 03:36:17 54° NW 03:40:20 10° NE
SPOT 3 Rocket 3.7 03:34:16 13° S 03:38:46 71° WSW 03:43:55 10° NNW
ATLAS 3B CENTAUR R/B 3.8 03:29:19 10° SW 03:40:14 29° S 03:43:01 24° SE
ERBS 3.7 03:42:53 23° ENE 03:42:53 23° ENE 03:44:27 10° NE
STARLINK-1140 4.4 03:41:11 10° NNW 03:45:08 42° NE 03:46:43 29° E
NOSS 2-3 (E) 4.1 03:42:11 10° SW 03:46:17 59° WNW 03:50:52 10° NNE
Meteor 2-4 Rocket 3.9 03:47:04 28° SSE 03:49:32 47° E 03:54:38 10° NNE
STARLINK-1156 4.2 03:46:08 10° NW 03:50:09 47° NE 03:51:31 33° E
Cosmos 1782 Rocket 3.7 03:45:53 10° N 03:50:19 59° E 03:51:49 37° SE
Cosmos 1703 Rocket 4.1 03:46:40 10° SSW 03:50:55 58° W 03:55:11 10° N
Cosmos 1544 3.5 03:47:42 10° N 03:51:10 42° E 03:51:24 41° E
H-2A R/B 4.5 03:48:04 10° SW 03:51:14 17° W 03:54:27 10° NW
COSMOS 2406 4.1 03:46:55 10° N 03:52:10 34° ENE 03:54:17 26° ESE
Cosmos 1743 2.8 03:48:44 10° NNW 03:52:31 70° W 03:54:10 31° S
SAR-Lupe-2 3.6 03:49:52 10° NNE 03:53:25 57° E 03:53:52 52° SE
Cosmos 1624 Rocket 4.1 03:49:41 10° SSW 03:54:59 81° WNW 04:00:20 10° NNE
STARLINK-1148 4.0 03:51:05 10° NW 03:55:08 52° NE 03:56:17 38° E
BREEZE M DEB (TANK) 3.3 03:54:55 10° WNW 03:56:51 28° WSW 03:56:51 28° WSW
Cosmos 1190 Rocket 4.3 03:53:28 10° N 03:58:33 51° ENE 04:00:11 37° ESE
Cosmos 2034 Rocket 4.4 03:52:43 10° NNW 03:58:47 60° W 04:04:01 14° SSW
Okean 2 Rocket 4.2 03:55:49 10° NNE 03:59:36 27° ENE 03:59:43 27° E
STARLINK-1158 3.9 03:56:02 10° NW 04:00:07 58° NE 04:01:05 44° E
STARLINK-1162 3.7 04:00:58 10° NW 04:05:05 64° NE 04:05:51 52° E
MetOp-B 4.0 04:03:15 36° SSE 04:05:31 80° ENE 04:10:54 10° N
Landsat 7 4.0 04:06:44 44° ESE 04:07:47 54° ENE 04:12:26 10° N
Cosmos 1140 Rocket 3.6 04:04:20 10° N 04:09:28 59° ENE 04:10:47 45° ESE
Cosmos 1975 2.7 04:06:31 10° N 04:10:35 89° WSW 04:11:15 61° S
Cosmos 614 Rocket 4.0 04:06:38 10° NNW 04:11:42 73° WSW 04:13:34 39° S
STARLINK-1159 3.4 04:10:55 10° NW 04:15:04 80° NE 04:15:26 71° ESE
Cosmos 909 Rocket 4.2 04:08:42 10° NNW 04:16:14 76° ENE 04:18:45 41° SE
Aureole 1 Rocket 3.3 04:13:28 10° NNW 04:17:55 78° ENE 04:19:15 51° SSE
STARLINK-1171 3.4 04:15:54 10° NW 04:20:03 89° NNE 04:20:13 82° SE
ERS-1 Rocket 3.4 04:20:27 42° E 04:21:03 44° ENE 04:25:48 10° N
STARLINK-1155 3.5 04:20:53 10° NW 04:25:00 82° SW 04:25:00 82° SW
Cosmos 1356 4.4 04:21:56 10° NNW 04:25:10 39° W 04:25:19 39° WSW
Cosmos 2279 Rocket 4.1 04:19:28 10° N 04:25:35 55° E 04:26:58 46° SE
Cosmos 1954 Rocket 4.2 04:20:28 10° N 04:25:36 52° ENE 04:26:17 49° E
Cosmos 332 Rocket 4.4 04:27:15 40° ENE 04:27:15 40° ENE 04:31:05 10° NNE
Spot 2 Rocket 3.5 04:26:03 50° S 04:27:22 77° WSW 04:32:25 10° NNW
SeaSat 1 4.0 04:25:10 10° NE 04:27:22 22° ENE 04:27:22 22° ENE
STARLINK-1166 3.6 04:25:51 10° NW 04:29:47 71° WSW 04:29:47 71° WSW
Cosmos 2082 Rocket 3.4 04:25:59 10° N 04:30:47 27° ENE 04:31:41 26° ENE
Cosmos 1437 Rocket 4.2 04:33:49 27° NE 04:33:49 27° NE 04:35:46 10° NNE
CARTOSAT-1 3.9 04:33:48 51° NE 04:33:48 51° NE 04:37:38 10° N
STARLINK-1165 3.9 04:30:51 10° NW 04:34:34 61° W 04:34:34 61° W
Cosmos 676 Rocket 3.9 04:33:19 10° NNW 04:38:35 73° ENE 04:39:02 68° ESE
Cosmos 1833 Rocket 2.9 04:33:34 10° N 04:39:02 52° ENE 04:39:38 50° E
STARLINK-1169 4.1 04:35:51 10° NW 04:39:21 52° W 04:39:21 52° W
Cosmos 1634 Rocket 4.3 04:34:23 10° NNW 04:40:39 65° W 04:43:07 38° SSW
SEDSat Delta rocket 3.9 04:34:26 10° W 04:41:00 58° SSW 04:41:33 56° S
STARLINK-1178 4.4 04:40:51 10° NW 04:44:08 44° W 04:44:08 44° W
IGS 5A 4.1 04:46:28 49° W 04:46:28 49° W 04:50:28 10° NNW
H-2A R/B 3.9 04:42:41 10° WSW 04:44:24 20° SW 04:44:24 20° SW
Cosmos 1943 Rocket 4.3 04:53:30 13° ENE 04:53:30 13° ENE 04:54:18 10° ENE
Terra 2.2 04:52:55 52° NE 04:52:55 52° NE 04:57:03 10° N
Cosmos 2278 Rocket 3.5 04:53:23 10° SW 04:58:35 37° WNW 05:03:50 10° N
H-2A ROCKET BODY 4.0 04:56:45 40° S 04:59:07 45° SE 05:33:26 10° E
Lacrosse 5 3.5 04:55:46 10° NNW 04:59:53 24° NE 05:00:44 23° NE
Cosmos 1300 Rocket 4.0 04:55:50 10° NNW 04:59:45 59° WNW 04:59:45 59° WNW
EXPRESS MD2 4.2 05:01:28 50° NNW 05:01:28 50° NNW 05:06:58 10° NE
Cosmos 2180 Rocket 4.4 04:56:18 10° N 05:02:42 88° E 05:03:31 70° S
Cosmos 1452 Rocket 4.2 05:07:10 39° WSW 05:08:35 49° WNW 05:13:43 10° N
Cosmos 1674 Rocket 4.3 05:10:10 50° NNW 05:10:10 50° NNW 05:13:36 10° N
Cosmos 1932 4.3 05:03:56 10° NNW 05:10:29 87° WSW 05:10:59 77° SSE
Cosmos 371 Rocket 4.4 05:12:58 36° W 05:13:53 40° WNW 05:18:28 10° N
SPOT 5 3.8 05:28:35 43° W 05:28:35 43° W 05:33:12 10° NNW
Cosmos 2026 Rocket 4.2 05:44:01 61° NE 05:44:01 61° NE 05:49:26 10° NNE
ISS -0.3 05:45:29 10° NNW 05:45:56 12° N 05:45:56 12° N
Cosmos 2297 4.5 05:54:46 45° WNW 05:54:58 46° WNW 06:00:27 10° N
USA 215 4.1 05:55:04 37° ENE 05:56:44 43° NE 06:02:50 10° NNW
SeaSat 1 3.9 06:02:35 10° N 06:06:53 31° WNW 06:07:08 30° WNW
Cosmos 2082 Rocket 3.5 06:09:41 10° NW 06:13:32 32° WNW 06:13:32 32° WNW
Cosmos 2369 Rocket 3.0 06:25:59 46° NNE 06:25:59 46° NNE 06:29:54 10° NNE
Terra 4.5 06:31:48 11° WNW 06:31:48 11° WNW 06:32:25 10° WNW
CENTAUR R/B 4.4 06:24:23 10° NNW 06:31:37 33° NE 06:36:06 21° E
Cosmos 1943 Rocket 3.1 06:34:59 43° NNW 06:34:59 43° NNW 06:39:17 10° N
Lacrosse 5 3.9 06:38:10 10° NW 06:39:54 21° WNW 06:39:54 21° WNW
ATLAS 2AS CENTAUR R/B 3.0 06:45:27 70° E 06:45:27 70° E 06:52:46 10° NE
NOSS 3-2 (A) 4.1 06:51:05 10° NNW 06:58:55 72° ENE 06:59:36 69° E
COSMOS 2455 3.9 07:04:08 37° NE 07:04:08 37° NE 07:07:54 10° NE
USA 238 DEB 3.9 06:58:57 10° NNW 07:05:58 77° NNE 07:05:58 77° NNE
USA 238 3.9 06:59:02 10° NNW 07:06:05 76° NE 07:06:05 76° NE
ATLAS CENTAUR R/B 4.0 07:21:34 17° NE 07:21:34 17° NE 07:22:38 10° NE
FALCON 9 R/B 3.1 07:32:37 64° E 07:32:37 64° E 07:45:42 10° E
USA 215 4.3 07:42:22 32° WNW 07:42:22 32° WNW 07:45:55 10° NW
SL-16 R/B 4.0 07:56:22 24° E 07:58:23 29° ENE 08:03:34 10° N
Cosmos 1867 4.4 07:54:50 10° NNW 07:59:09 49° NNE 07:59:09 49° NNE
NOSS 3-2 (C) 4.0 07:56:10 10° NW 08:04:01 72° WSW 08:04:01 72° WSW
Meteor 1-24 Rocket 4.3 08:10:46 49° N 08:10:46 49° N 08:14:43 10° N
Cosmos 1745 Rocket 4.2 08:11:24 60° ENE 08:11:24 60° ENE 08:17:09 10° NNE
CZ-2D R/B 3.0 08:11:23 10° NNE 08:15:32 41° ENE 08:15:32 41° ENE
ADEOS II 4.2 08:14:13 10° NE 08:17:20 16° E 08:17:53 16° E
ATLAS 3B R/B 3.0 08:12:10 10° NNW 08:18:58 62° ENE 08:21:15 42° ESE
CENTAUR R/B 3.1 08:14:35 10° NW 08:22:54 65° WSW 08:23:12 65° SW
SJ 16-02 4.1 08:22:25 10° NNE 08:24:33 13° ENE 08:26:41 10° E
Resurs 1-4 Rocket 2.7 08:20:01 10° NNE 08:24:30 52° ENE 08:24:30 52° ENE
GEOS 3 Rocket 4.1 08:32:59 53° NNW 08:32:59 53° NNW 08:36:56 10° NNW
Cosmos 1656 4.2 08:34:04 49° E 08:34:04 49° E 08:39:12 10° NNE
NPP 4.0 08:29:01 10° NNE 08:33:57 57° E 08:33:57 57° E
ATLAS 2AS CENTAUR R/B 4.5 08:32:51 20° W 08:36:29 27° NW 08:43:01 10° N
SL-08 ROCKET BODY 4.4 08:46:52 67° WNW 08:46:52 67° WNW 08:52:25 10° N
COSMOS 2455 4.5 08:47:15 21° WNW 08:48:17 22° NW 08:52:51 10° N
VEP-3 4.3 08:46:29 45° SW 08:49:23 52° S 09:55:45 10° ESE
VEP-3 4.3 08:46:29 45° SW 08:49:23 52° S 09:55:44 10° ESE
VEP-3 4.3 08:46:29 45° SW 08:49:24 52° S 09:55:45 10° ESE
CZ-4C R/B 2.9 08:51:25 38° ESE 08:51:25 38° ESE 08:55:58 10° NE
UNK 4.1 08:55:42 60° N 08:55:42 60° N 08:59:30 10° N
ATLAS CENTAUR R/B 4.0 08:57:43 12° NW 08:57:43 12° NW 08:59:20 10° NNW
Cosmos 1812 Rocket 4.1 08:56:26 10° N 09:00:07 58° NNE 09:00:07 58° NNE
Cosmos 1709 Rocket 3.8 09:00:26 71° S 09:01:11 85° E 09:07:19 10° N
Cosmos 1980 Rocket 3.9 09:00:48 20° SE 09:02:32 23° E 09:06:48 10° NE
Cosmos 1455 3.6 09:00:58 10° N 09:03:48 36° NE 09:03:48 36° NE
Cosmos 1825 Rocket 4.1 09:06:52 54° ENE 09:06:52 54° ENE 09:10:43 10° NNE
Cosmos 2219 3.6 09:01:17 10° NNW 09:06:53 59° ENE 09:09:29 31° SE
AQUA 3.8 09:03:20 10° N 09:07:44 74° NNW 09:07:44 74° NNW
SL-19 R/B 4.3 09:12:09 65° SSW 09:12:52 72° WSW 09:19:11 10° NNW
CZ-4B R/B 3.5 09:09:43 10° N 09:14:50 65° WNW 09:14:58 65° W
Cosmos 2297 Rocket 2.5 09:16:21 10° NNW 09:21:58 64° ENE 09:25:53 20° SE
Cosmos 1703 3.6 09:23:36 63° NNE 09:23:36 63° NNE 09:26:57 10° N
CBERS-1 3.8 09:18:17 10° N 09:23:26 83° WNW 09:23:58 71° SW
GP-B 3.0 09:19:01 10° N 09:23:22 85° N 09:23:22 85° N
Cosmos-2242 3.5 09:19:46 10° N 09:23:56 53° E 09:24:34 48° ESE
Cosmos 2278 4.4 09:23:50 36° SSE 09:25:32 47° ESE 09:30:56 10° NE
Cosmos 841 Rocket 4.0 09:24:51 43° SSE 09:26:07 53° ESE 09:31:13 10° NNE
SL-08 R/B 4.3 09:30:05 18° SE 09:33:17 45° ENE 09:37:43 10° N
IRS-1D 3.6 09:31:30 10° N 09:36:46 62° WNW 09:37:40 53° WSW
SL-16 R/B 3.0 09:41:27 37° WSW 09:41:46 38° W 09:47:26 10° NNW
Cosmos 2074 Rocket 4.2 09:39:15 29° S 09:42:38 70° E 09:48:54 10° NNE
Cosmos 1763 Rocket 3.7 09:43:52 45° W 09:44:38 49° WNW 09:49:34 10° N
Cosmos 1758 Rocket 4.3 09:45:10 36° WNW 09:45:10 36° WNW 09:48:54 10° N
H-2A R/B 4.0 09:43:08 10° SE 09:46:50 29° ENE 09:50:36 10° N
Cosmos 1697 Rocket 2.8 09:51:53 42° SW 09:53:37 61° WNW 09:59:14 10° NNE
Cosmos 2184 Rocket 4.0 09:51:04 28° S 09:54:30 84° E 10:00:41 10° N
IRS-P3 4.2 09:50:17 10° N 09:55:32 60° WNW 09:57:14 40° SW
CZ-2D R/B 3.6 09:52:23 10° NNW 09:56:03 20° WNW 09:56:52 19° WNW
Lacrosse 4 Rocket 3.8 09:52:36 10° N 09:56:08 24° ENE 09:59:34 10° ESE
USA 234 3.5 09:50:37 10° NE 09:57:03 58° SE 10:00:31 28° SSW
ADEOS II 2.3 09:52:11 10° N 09:57:17 52° WNW 09:58:49 39° WSW
Cosmos 2227 Rocket 2.1 09:51:56 10° NNW 09:57:36 73° WSW 10:02:08 16° S
SL-16 R/B 4.4 09:56:25 10° SE 10:00:22 20° E 10:04:19 10° NE
Cosmos 1953 Rocket 3.9 10:00:31 44° WSW 10:01:10 47° W 10:05:29 10° N
SJ 16-02 1.6 09:59:08 10° NNW 10:03:22 47° WSW 10:03:51 45° WSW
Resurs 1-4 Rocket 3.9 10:01:24 10° NNW 10:04:31 16° WNW 10:05:35 15° WNW
ARIANE 5 R/B 2.4 10:01:26 10° N 10:06:28 70° WNW 10:08:36 34° SSW
Iridium 2 4.2 10:05:12 10° N 10:08:53 55° E 10:11:29 18° SSE
ATLAS 3B R/B 3.9 10:04:02 10° WNW 10:08:24 22° W 10:08:24 22° W
STARLINK-43 3.2 10:09:35 54° SSW 10:10:20 83° SE 10:14:00 10° NE
Cosmos 2181 Rocket 4.3 10:04:50 10° NNW 10:11:00 49° W 10:14:24 26° SSW
Spot 4 Rocket 3.9 10:07:50 10° NNE 10:13:00 86° WNW 10:16:00 26° SSW
ERS-2 2.0 10:12:05 24° SSE 10:14:11 88° ENE 10:17:51 10° NNW
Cosmos 1898 Rocket 3.7 10:09:34 10° NNW 10:14:43 51° WSW 10:17:52 22° SSW
Cosmos 1842 Rocket 4.4 10:10:51 10° N 10:15:13 51° E 10:19:33 10° SSE
STARLINK-55 4.2 10:17:33 27° SSE 10:18:21 31° SE 10:21:13 10° ENE
Cosmos 2208 Rocket 4.4 10:18:21 29° WSW 10:20:33 46° WNW 10:25:38 10° N
IDEFIX/ARIANE 42P 2.6 10:17:00 10° NNE 10:22:18 80° ESE 10:26:30 16° S
Meteor 1-27 4.2 10:17:05 10° N 10:22:41 85° E 10:28:15 10° S
OAO 1 4.5 10:19:17 15° W 10:23:47 67° SSW 10:29:14 10° ESE
Cosmos 1937 Rocket 3.5 10:19:18 10° NNW 10:24:27 59° WSW 10:29:37 10° S
Cosmos 2154 Rocket 4.0 10:21:10 15° S 10:26:31 85° W 10:32:49 10° N
STARLINK-28 3.6 10:27:13 31° S 10:28:19 45° SE 10:31:25 10° ENE
STARLINK-1245 4.5 10:25:52 10° NW 10:29:55 53° NE 10:33:58 10° ESE
IRIDIUM 104 4.3 10:26:04 13° S 10:30:45 87° W 10:36:00 10° N
Skynet4D Del rocket 4.5 10:28:34 23° SSW 10:30:54 31° S 10:35:37 10° ESE
STARLINK-1233 4.2 10:30:48 10° NW 10:34:53 59° NE 10:38:58 10° ESE
Meteor 1-28 Rocket 3.5 10:33:40 22° SSW 10:35:47 46° W 10:39:26 10° NNW
Cosmos 1076 Rocket 3.8 10:34:01 10° S 10:38:19 68° E 10:42:38 10° NNE
STARLINK-41 3.8 10:37:29 23° S 10:39:03 41° SE 10:42:01 10° ENE
CZ-4C R/B 3.5 10:36:36 14° W 10:39:39 24° NW 10:44:11 10° N
STARLINK-1204 4.0 10:35:47 10° NW 10:39:53 65° NE 10:44:00 10° SE
IRIDIUM 114 4.3 10:35:12 13° S 10:39:55 70° W 10:45:07 10° N
Landsat 5 3.6 10:36:14 10° SSE 10:40:41 87° W 10:45:13 10° NNW
ATLAS CENTAUR R/B 3.2 10:36:23 10° NW 10:40:44 59° SW 10:52:04 10° SSE
CZ-2C R/B 3.8 10:36:01 10° NNE 10:40:49 38° E 10:45:38 10° SSE
STARLINK-1289 4.5 10:39:03 16° S 10:40:59 28° SE 10:43:51 10° ENE
STARLINK-1303 4.4 10:40:28 16° S 10:42:29 30° SE 10:45:26 10° ENE
Cosmos 2285 Rocket 4.2 10:37:36 10° NNW 10:43:40 49° WSW 10:49:41 10° S
STARLINK-1312 4.4 10:42:00 16° S 10:44:03 31° SE 10:46:59 10° ENE
STARLINK-1238 3.9 10:40:43 10° NW 10:44:51 73° NE 10:48:59 10° SE
CZ-4C R/B 3.0 10:41:53 10° S 10:45:22 59° W 10:48:56 10° NNW
STARLINK-33 3.1 10:43:36 23° SSW 10:45:22 63° SE 10:48:32 10° NE
Cosmos 1892 2.7 10:41:43 11° S 10:45:27 80° E 10:49:16 10° N
Cosmos 1980 Rocket 2.8 10:42:35 19° SW 10:46:11 40° WNW 10:51:29 10° N
CZ-2D R/B 4.5 10:44:56 10° N 10:48:34 30° WNW 10:51:00 18° WSW
IRIDIUM 103 4.5 10:44:21 12° SSW 10:49:05 56° W 10:54:13 10° N
STARLINK-1201 3.7 10:45:42 10° NW 10:49:50 82° NE 10:53:59 10° SE
STARLINK-66 2.9 10:51:48 20° SW 10:53:52 84° SE 10:57:05 10° NE
STARLINK-1206 3.6 10:50:40 10° NW 10:54:49 90° W 10:58:57 10° SE
Cosmos 1869 3.1 10:51:33 10° N 10:55:25 74° W 10:59:14 10° S
Cosmos 1400 Rocket 3.9 10:52:49 10° NW 10:56:17 26° W 10:59:03 14° SW
STARLINK-1212 4.0 10:54:17 10° WNW 10:56:47 22° SW 10:59:17 10° S
STARLINK-1105 4.0 10:54:45 10° WNW 10:57:14 22° SW 10:59:41 10° S
STARLINK-1247 4.1 10:55:41 10° WNW 10:58:10 22° SW 11:00:39 10° S
STARLINK-1227 4.1 10:56:10 10° WNW 10:58:36 21° SW 11:01:01 10° S
STARLINK-1226 4.1 10:57:01 10° WNW 10:59:27 21° SW 11:01:53 10° S
STARLINK-1205 3.5 10:55:39 10° NW 10:59:48 81° SW 11:03:55 10° SE
STARLINK-1215 4.2 10:58:01 10° WNW 11:00:25 20° SW 11:02:48 10° S
STARLINK-1217 4.2 10:59:49 10° WNW 11:02:10 20° SW 11:04:30 10° S
STARLINK-1229 4.2 11:00:46 10° W 11:03:05 19° SW 11:05:23 10° S
Cosmos 2221 2.7 10:59:12 10° NNW 11:03:24 51° W 11:07:36 10° SSW
NOSS 2-1 (E) 3.4 11:00:26 10° SSW 11:03:54 59° ESE 11:07:16 10° NE
STARLINK-1270 4.3 11:01:40 10° W 11:03:56 19° SW 11:06:14 10° S
PSLV R/B 3.4 10:59:58 10° N 11:04:11 82° WNW 11:08:22 10° SSW
STARLINK-1218 3.5 11:00:37 10° NW 11:04:45 72° SW 11:08:51 10° SE
STARLINK-75 2.9 11:02:24 15° SW 11:04:58 85° NW 11:08:12 10° NE
Cosmos 2297 Rocket 3.8 11:02:33 10° WNW 11:05:21 14° W 11:07:33 11° WSW
STARLINK-1189 4.3 11:03:34 10° W 11:05:46 18° SW 11:07:58 10° S
STARLINK-1188 4.4 11:04:29 10° W 11:06:40 17° SW 11:08:49 10° S
Nadezhda 3 Rocket 4.2 11:01:50 10° NNW 11:07:54 53° W 11:14:01 10° SSW
SAR-Lupe-4 3.5 11:05:12 10° S 11:08:46 75° WSW 11:12:21 10° NNW
STARLINK-1191 4.4 11:07:04 10° W 11:09:05 16° SW 11:11:07 10° SSW
STARLINK-1254 3.6 11:05:37 10° NW 11:09:43 64° SW 11:13:48 10° SE
STARLINK-1221 4.5 11:07:56 10° W 11:09:56 16° SW 11:11:56 10° SSW
Centaur D-1A AC-31 4.0 02:05:01 10° SSW 11:12:56 62° SSW 11:19:55 10° ESE
Cosmos 2341 Rocket 4.1 11:06:47 10° SSW 11:13:07 65° W 11:19:28 10° N
Cosmos 372 Rocket 4.2 11:08:44 10° NNW 11:13:37 46° WSW 11:18:31 10° S
Cosmos 2366 rocket 4.3 11:08:21 10° S 11:14:29 73° E 11:20:42 10° N
STARLINK-1231 3.7 11:10:39 10° NW 11:14:43 57° SW 11:18:45 10° SSE
STARLINK-22 2.9 11:12:00 11° SW 11:15:01 89° NW 11:18:13 10° NE
Cosmos 2151 3.2 11:11:33 10° S 11:15:45 73° E 11:20:00 10° N
STARLINK-58 3.6 11:13:03 10° SSW 11:16:08 50° SE 11:19:13 10° NE
CZ-2C R/B 4.3 11:13:26 10° NNW 11:16:10 20° WNW 11:18:55 10° WSW
Cosmos 1315 Rocket 3.1 11:13:06 10° NNW 11:16:50 43° W 11:20:33 10° SSW
Cosmos 2322 Rocket 2.3 11:11:14 10° SSW 11:16:52 81° ESE 11:22:30 10° NNE
STARLINK-1301 3.0 11:14:11 10° SW 11:17:27 84° NW 11:20:49 10° NE
STARLINK-1307 3.1 11:15:29 10° SW 11:18:51 86° SE 11:22:13 10° NE
STARLINK-1232 3.8 11:15:40 10° NW 11:19:40 50° SW 11:23:40 10° SSE
Cosmos 2263 Rocket 2.6 11:15:34 10° NNW 11:21:10 70° ENE 11:26:41 10° SSE
STARLINK-1290 3.1 11:17:50 10° SW 11:21:12 89° NNW 11:24:35 10° NE
Cosmos 1689 Rocket 3.9 11:19:25 10° SE 11:22:07 36° ENE 11:24:51 10° N
H-2A R/B 3.5 11:19:42 10° SW 11:22:47 19° W 11:25:57 10° NW
STARLINK-1297 3.1 11:20:01 10° SW 11:23:22 84° NW 11:26:46 10° NE
STARLINK-1208 3.9 11:20:39 10° WNW 11:24:36 45° SW 11:28:33 10° SSE
SAR-Lupe-1 4.3 11:21:21 10° S 11:24:45 47° W 11:28:11 10° NNW
PAYLOAD A 3.9 11:20:47 10° N 11:25:24 60° WNW 11:30:03 10° SSW
Cosmos 2227 4.3 11:21:23 10° NNW 11:27:10 87° WSW 11:32:55 10° SSE
STARLINK-26 4.1 11:24:28 10° WSW 11:27:39 35° NW 11:30:52 10° NNE
STARLINK-1271 4.0 11:25:42 10° WNW 11:29:35 40° SW 11:33:27 10° SSE
Cosmos 2058 4.2 11:26:57 10° SW 11:30:24 25° WNW 11:33:52 10° NNW
deb Chang Zheng 4 4.4 11:26:40 10° N 11:30:33 34° WNW 11:34:24 10° SW
STARLINK-80 3.7 11:27:04 10° WSW 11:30:48 58° NW 11:34:32 10° NE
